Temp
47 46 44 51 59 62 59 57 56 60 61 59 60 60 65 71 70 70 72 75 76 76 79 77 76 77 76 76 76 76 75 74 74 73 71 72 71 72 73 75 75 75 75 71
44 42 54 57 60 60 59 55 55 60 59 57 60 59 64 68 70 72 72 73 75 76 77 77 76 75 75 76 76 76 75 75 75 75 74 74 74 73 74 74 74 73 70 68
45 52 53 56 57 55 56 53 54 51 56 57 55 54 58 66 68 71 73 74 75 76 75 76 74 74 75 75 75 75 76 76 77 76 76 75 75 73 71 70 70 69 69 68
49 53 52 53 53 57 46 54 54 51 50 47 57 47 62 67 66 68 69 71 73 75 76 78 75 73 74 74 77 77 77 77 77 77 74 72 70 67 70 72 70 68 70 70
46 47 48 47 51 58 50 55 51 50 47 45 51 46 57 66 62 66 70 69 73 73 75 76 76 74 75 75 75 76 77 77 77 76 75 73 71 72 74 74 71 69 70 70
52 60 56 54 55 54 54 51 48 46 45 34 47 48 52 59 61 65 71 72 72 74 75 76 77 76 75 74 74 74 74 75 76 76 74 73 72 71 72 73 70 69 70 69
46 50 55 56 46 49 48 46 34 32 32 36 48 48 52 63 67 68 69 72 74 75 74 74 73 73 72 71 71 72 72 73 75 75 74 73 72 73 72 72 70 69 68 66
39 34 49 56 53 43 44 48 42 32 35 42 42 40 52 63 64 67 70 71 73 74 75 73 73 71 70 69 71 70 69 70 73 74 74 74 73 73 73 73 72 70 68 67
42 41 52 55 56 53 42 39 52 41 33 37 46 51 59 60 63 63 65 66 67 70 72 71 70 72 70 68 67 67 69 67 71 72 72 73 73 72 71 72 73 71 70 68
51 36 48 50 54 54 52 53 39 43 31 32 44 45 49 57 61 65 64 65 68 70 71 69 69 69 69 70 69 67 68 68 67 71 71 71 71 70 70 70 69 67 68 62
55 45 39 45 43 41 43 44 47 50 45 37 37 48 61 59 60 63 66 66 68 68 68 68 68 68 66 66 66 66 65 65 66 67 68 68 68 68 67 65 65 61 59 58
52 46 35 39 48 54 51 46 48 41 37 45 41 44 61 62 62 64 64 65 67 64 64 65 65 63 62 61 62 62 63 63 63 63 62 63 66 64 61 61 59 56 54 53
51 42 31 33 43 49 46 49 50 51 45 37 36 46 65 64 63 64 64 66 67 63 66 64 62 61 61 60 59 60 61 61 61 61 60 60 60 61 61 58 55 53 52 50
51 45 41 35 42 46 40 45 48 48 39 42 43 51 58 61 63 65 65 65 67 66 66 64 62 61 60 59 60 60 59 59 58 57 57 57 56 58 58 58 54 51 50 48
53 37 45 50 52 49 45 44 46 45 48 44 50 50 57 64 65 67 68 69 67 65 66 67 65 64 62 58 58 58 59 57 56 54 54 55 54 54 52 47 46 44 46 45
54 37 46 36 46 49 44 47 47 47 48 49 51 51 63 66 68 66 66 67 65 66 68 66 64 63 60 59 57 57 56 54 53 53 52 52 48 45 42 41 40 39 38 39
46 38 35 33 41 40 34 42 47 49 51 51 46 54 61 61 62 63 64 66 65 65 65 65 64 63 60 59 58 56 56 55 50 47 44 42 41 40 39 38 37 37 38 38
37 36 34 30 34 27 44 57 55 51 53 55 55 57 60 61 64 65 66 65 63 64 65 64 63 64 62 60 58 57 55 51 45 43 41 39 39 38 37 36 36 37 37 37
51 42 33 31 32 41 47 50 52 50 49 58 56 57 60 62 59 59 65 65 64 65 61 59 59 59 59 59 57 52 46 44 42 42 41 39 38 36 36 35 36 36 35 35
45 49 39 32 32 28 48 54 57 57 39 59 59 57 58 59 48 57 66 61 57 54 52 52 53 53 54 53 51 44 42 42 42 42 41 40 38 36 35 36 36 36 35 34
33 34 34 33 33 37 46 50 56 37 42 52 58 60 59 54 58 56 52 50 49 48 47 48 50 48 48 44 42 42 42 40 42 40 38 36 36 35 36 36 35 34 34 33
36 34 33 34 32 29 50 47 45 52 48 49 51 53 51 57 50 50 50 47 46 45 44 41 43 41 41 40 40 40 40 41 37 36 35 34 34 34 34 34 33 33 33 33
37 44 38 40 40 46 49 50 52 49 50 48 50 49 53 50 49 49 47 45 42 41 38 37 36 36 37 35 36 36 36 35 34 33 32 33 33 33 33 33 33 33 33 33
41 50 43 41 46 45 47 46 47 49 49 48 47 47 50 49 46 41 40 38 38 34 34 33 34 33 33 33 33 33 34 33 33 32 33 33 33 33 33 34 34 34 33 33
43 42 36 37 39 42 43 46 48 44 43 42 42 43 46 43 40 39 35 34 34 33 33 32 32 32 31 32 32 32 32 33 32 32 32 33 33 33 33 33 34 34 35 36
42 43 41 41 45 50 48 46 44 42 42 41 40 38 37 40 37 36 33 33 33 32 32 31 30 30 30 31 31 30 31 31 32 32 32 33 33 33 33 33 33 37 37 37
MSLP
1015.89 1015.61 1014.41 1013.55 1012.87 1012.04 1012.26 1012.52 1012.61 1013.09 1013.90 1013.96 1013.34 1012.76 1012.26 1011.91 1011.99 1012.02 1011.99 1011.71 1012.13 1012.63 1013.13 1014.11 1014.97 1015.73 1016.44 1016.93 1017.45 1018.07 1018.56 1019.13 1019.81 1020.25 1020.47 1020.68 1020.90 1021.43 1021.75 1021.88 1022.18 1022.49 1022.94 1023.56
1015.80 1014.56 1013.64 1013.44 1012.49 1012.13 1012.18 1012.49 1012.76 1013.13 1014.12 1014.24 1013.13 1012.08 1011.86 1011.33 1010.89 1011.09 1011.41 1011.45 1011.74 1012.25 1012.60 1013.33 1014.28 1015.10 1015.66 1016.11 1016.64 1017.33 1017.79 1018.32 1018.75 1019.33 1019.83 1020.13 1020.39 1020.87 1021.20 1021.51 1021.77 1022.28 1022.82 1023.23
1013.68 1013.06 1013.44 1012.72 1012.49 1012.34 1012.68 1012.72 1013.11 1013.64 1014.38 1014.37 1013.64 1011.58 1011.00 1010.45 1010.46 1010.53 1010.82 1011.15 1011.44 1011.56 1012.09 1012.75 1013.64 1014.16 1014.89 1015.25 1015.90 1016.41 1017.00 1017.40 1017.92 1018.41 1019.06 1019.64 1019.87 1020.21 1020.66 1021.02 1021.44 1021.81 1022.23 1022.61
1013.33 1013.23 1012.96 1012.70 1012.56 1012.67 1013.49 1013.85 1013.99 1014.55 1015.11 1014.36 1013.70 1011.10 1008.78 1008.44 1008.71 1009.21 1009.56 1010.06 1010.64 1011.14 1011.58 1011.95 1012.89 1013.70 1013.89 1014.28 1015.05 1015.63 1015.96 1016.62 1017.13 1017.78 1018.22 1018.62 1019.10 1019.45 1019.87 1020.20 1020.75 1021.23 1021.25 1021.53
1012.82 1012.57 1012.76 1013.09 1012.67 1013.10 1013.89 1014.70 1015.36 1016.02 1015.91 1015.56 1014.04 1013.19 1008.74 1008.16 1007.99 1007.92 1008.31 1008.85 1009.06 1009.64 1010.45 1011.20 1011.74 1012.56 1013.09 1013.91 1014.20 1014.72 1015.29 1015.70 1016.26 1016.87 1017.35 1017.80 1018.22 1018.73 1019.08 1019.46 1019.86 1020.37 1020.70 1020.95
1011.95 1012.55 1012.82 1012.84 1013.63 1013.95 1014.89 1015.91 1016.65 1016.92 1016.87 1015.96 1013.99 1012.92 1008.98 1007.94 1007.47 1007.67 1007.68 1007.83 1008.36 1008.77 1009.38 1010.10 1010.75 1011.72 1012.52 1013.20 1013.78 1014.18 1014.52 1014.97 1015.61 1016.03 1016.45 1016.80 1017.25 1017.80 1018.18 1018.40 1018.93 1019.52 1019.91 1020.26
1012.43 1012.67 1012.83 1012.89 1013.98 1015.05 1015.23 1015.79 1017.03 1017.55 1017.07 1014.68 1013.60 1012.25 1009.61 1007.88 1007.62 1007.67 1007.42 1007.43 1007.77 1008.24 1008.88 1009.49 1010.18 1010.94 1011.67 1012.29 1012.91 1013.44 1013.86 1014.05 1014.62 1015.17 1015.62 1016.10 1016.44 1016.80 1017.27 1017.51 1018.05 1018.74 1019.17 1019.64
1010.70 1012.98 1012.56 1012.73 1012.61 1013.92 1015.45 1015.13 1014.87 1015.46 1015.32 1014.17 1013.90 1011.35 1008.98 1008.40 1008.18 1007.97 1007.71 1007.84 1007.67 1007.94 1008.51 1009.03 1009.68 1010.44 1011.03 1011.74 1012.02 1012.81 1013.48 1013.64 1013.89 1014.35 1014.67 1015.14 1015.78 1016.00 1016.23 1016.66 1017.24 1017.90 1018.30 1018.64
1009.39 1011.25 1012.47 1012.72 1013.18 1013.64 1015.28 1015.43 1015.23 1015.16 1015.79 1014.86 1012.38 1010.47 1009.24 1008.27 1007.79 1007.92 1007.68 1008.16 1008.37 1008.50 1008.88 1009.29 1009.76 1010.38 1011.01 1011.45 1011.64 1011.84 1012.52 1013.22 1013.43 1013.61 1014.08 1014.44 1015.03 1015.23 1015.47 1015.90 1016.35 1016.95 1017.49 1018.04
1008.55 1011.31 1012.88 1013.64 1013.85 1014.28 1013.63 1014.74 1015.35 1015.03 1014.64 1013.39 1010.77 1009.96 1008.53 1007.84 1007.35 1007.33 1007.43 1007.78 1008.12 1008.43 1008.76 1009.35 1009.86 1010.29 1010.76 1011.10 1011.54 1011.95 1011.84 1011.82 1012.30 1012.88 1013.22 1013.31 1013.84 1014.62 1015.09 1015.52 1015.74 1016.19 1016.74 1017.63
1007.98 1009.53 1013.29 1013.97 1013.49 1013.58 1014.24 1013.97 1013.87 1013.60 1013.66 1012.38 1010.72 1008.73 1007.77 1007.66 1007.64 1007.30 1007.29 1007.81 1008.24 1008.61 1009.03 1009.49 1009.96 1010.51 1010.96 1011.07 1011.23 1011.47 1011.90 1011.94 1011.98 1012.13 1012.41 1012.88 1013.29 1014.12 1014.96 1015.29 1015.70 1016.15 1016.75 1017.61
1007.99 1009.25 1011.89 1012.96 1013.38 1013.21 1013.36 1013.39 1013.34 1012.96 1013.10 1012.20 1011.15 1008.62 1007.65 1007.54 1007.39 1007.40 1007.49 1007.78 1008.33 1008.99 1009.49 1010.00 1010.18 1010.57 1011.01 1011.32 1011.69 1011.63 1011.80 1012.15 1012.38 1012.45 1012.76 1013.05 1013.35 1013.84 1014.63 1015.17 1015.64 1016.15 1016.76 1017.50
1007.15 1009.19 1011.58 1013.66 1013.72 1013.14 1012.45 1012.70 1012.88 1012.63 1012.81 1012.06 1011.27 1007.58 1006.85 1006.92 1007.12 1007.36 1007.51 1007.74 1008.08 1008.76 1009.26 1009.93 1010.16 1010.26 1010.67 1011.05 1011.47 1011.61 1011.80 1012.03 1012.42 1012.65 1013.02 1013.27 1013.40 1013.63 1013.93 1014.98 1015.55 1016.12 1016.80 1017.47
1006.69 1008.30 1008.84 1009.35 1009.32 1010.97 1012.15 1012.19 1012.44 1012.64 1012.39 1010.53 1009.72 1006.53 1006.90 1007.03 1006.93 1007.05 1007.48 1007.75 1007.99 1008.36 1008.76 1009.39 1009.78 1009.95 1010.26 1010.87 1011.46 1011.65 1011.89 1012.31 1012.81 1013.22 1013.59 1013.57 1013.57 1013.74 1013.85 1014.50 1015.33 1015.96 1016.51 1017.20
1006.40 1007.88 1008.70 1009.11 1009.27 1009.94 1010.27 1010.65 1011.51 1011.68 1009.75 1009.91 1007.21 1006.79 1006.80 1006.43 1006.49 1006.62 1007.10 1007.57 1007.90 1008.31 1008.70 1008.96 1009.30 1009.40 1010.18 1011.04 1011.43 1011.86 1012.18 1012.52 1012.80 1013.34 1013.55 1013.58 1013.76 1013.99 1014.28 1014.76 1015.08 1015.79 1016.28 1016.99
1006.53 1007.65 1009.01 1009.81 1009.86 1009.79 1009.86 1010.24 1010.49 1009.80 1008.89 1009.67 1007.51 1006.58 1006.81 1006.64 1006.57 1006.78 1007.10 1007.29 1007.54 1008.00 1008.42 1008.49 1008.76 1009.12 1009.73 1010.34 1011.13 1011.56 1012.08 1012.54 1013.10 1013.08 1013.08 1013.45 1014.23 1014.65 1015.00 1015.17 1015.51 1015.99 1016.55 1017.01
1006.91 1008.12 1009.35 1010.32 1010.24 1010.34 1010.27 1008.20 1008.26 1008.72 1008.66 1008.04 1007.58 1004.56 1007.08 1006.44 1006.59 1007.01 1007.25 1007.41 1007.55 1007.88 1008.13 1008.24 1008.65 1008.95 1009.36 1009.91 1010.58 1011.16 1011.91 1012.56 1013.12 1013.22 1013.42 1013.69 1014.01 1014.71 1015.43 1016.05 1016.10 1016.23 1016.48 1017.13
1007.33 1008.55 1009.68 1011.16 1010.96 1010.25 1006.74 1006.94 1006.94 1007.03 1007.02 1007.20 1006.23 1005.32 1006.47 1006.41 1006.54 1006.87 1007.31 1007.26 1007.63 1008.01 1008.23 1008.70 1009.03 1009.22 1009.41 1009.82 1010.42 1011.08 1011.64 1012.37 1013.04 1013.39 1013.72 1014.03 1014.64 1014.99 1015.21 1015.91 1016.43 1016.59 1016.70 1016.76
1007.78 1008.31 1009.58 1010.54 1010.10 1008.29 1006.57 1006.20 1005.78 1005.95 1005.45 1006.00 1005.52 1005.47 1006.23 1006.65 1007.22 1006.90 1007.19 1007.37 1007.65 1007.98 1008.55 1009.30 1009.77 1009.89 1009.94 1009.85 1010.09 1010.81 1011.73 1012.57 1013.18 1013.32 1013.75 1014.28 1014.72 1015.11 1015.67 1015.94 1016.25 1016.67 1017.15 1017.37
1008.38 1007.99 1008.44 1009.62 1009.02 1007.72 1005.02 1005.05 1005.74 1006.29 1005.10 1005.22 1005.31 1005.33 1005.91 1006.80 1007.11 1005.44 1006.74 1007.69 1008.60 1009.15 1009.31 1009.98 1010.72 1010.97 1010.83 1010.79 1010.76 1010.99 1011.59 1012.37 1013.29 1013.88 1013.98 1014.23 1014.59 1014.84 1015.22 1015.72 1015.99 1016.47 1016.90 1017.61
1008.39 1008.07 1007.65 1008.27 1008.03 1006.52 1005.59 1005.47 1005.76 1006.44 1004.80 1003.80 1004.62 1005.14 1005.90 1006.41 1006.10 1007.38 1008.51 1009.30 1010.03 1010.44 1010.80 1010.99 1011.08 1011.43 1012.13 1012.25 1011.72 1011.64 1012.01 1012.43 1013.03 1013.49 1013.82 1014.21 1014.90 1015.29 1015.32 1015.73 1016.16 1016.61 1017.06 1017.52
1005.41 1006.16 1006.83 1007.66 1007.75 1006.59 1005.40 1005.97 1004.88 1004.79 1005.23 1005.43 1006.11 1006.32 1006.50 1006.33 1007.49 1008.68 1009.60 1010.28 1010.72 1011.13 1011.79 1012.13 1012.11 1012.08 1012.33 1012.95 1012.90 1012.68 1012.98 1013.07 1013.21 1013.34 1013.66 1014.15 1014.53 1015.16 1015.59 1015.79 1016.09 1016.67 1017.18 1017.75
1004.52 1003.48 1004.43 1005.38 1004.81 1004.80 1004.65 1004.39 1004.94 1005.45 1005.96 1006.79 1007.12 1007.20 1007.12 1007.54 1008.50 1009.73 1010.63 1011.53 1012.11 1012.44 1012.80 1012.83 1012.83 1013.10 1013.44 1013.53 1013.75 1013.59 1013.73 1013.57 1013.50 1013.65 1014.00 1014.31 1014.80 1015.17 1015.37 1015.76 1016.05 1016.42 1016.93 1017.32
1004.45 1003.88 1004.22 1005.28 1004.28 1004.46 1004.73 1005.71 1005.96 1006.56 1007.16 1007.58 1007.81 1007.93 1008.19 1008.71 1009.72 1011.06 1011.71 1012.29 1012.85 1013.38 1013.31 1013.46 1013.93 1014.38 1014.49 1014.37 1014.13 1014.33 1014.08 1014.12 1014.01 1014.12 1014.37 1014.65 1014.99 1015.43 1015.88 1015.86 1015.85 1016.10 1016.41 1016.71
1003.75 1004.29 1004.02 1004.14 1004.78 1005.24 1005.51 1005.93 1006.57 1007.51 1008.08 1008.43 1008.82 1009.14 1009.30 1009.84 1011.04 1012.08 1012.46 1013.03 1013.50 1013.92 1014.07 1014.42 1014.67 1015.11 1015.13 1014.95 1014.88 1014.76 1014.61 1014.51 1014.37 1014.36 1014.35 1014.52 1014.92 1015.30 1015.62 1015.92 1015.91 1016.04 1016.08 1016.11
1003.35 1003.01 1003.53 1002.84 1004.14 1004.47 1004.92 1005.85 1006.94 1008.01 1008.70 1009.16 1009.49 1010.26 1010.76 1011.32 1012.29 1012.84 1013.08 1013.83 1014.16 1014.53 1015.08 1015.54 1015.69 1015.78 1015.78 1015.44 1015.32 1015.35 1015.26 1014.96 1014.88 1014.73 1014.70 1014.80 1015.01 1015.21 1015.57 1015.80 1015.78 1015.84 1016.00 1016.14
Wind_Speed
3 5 12 17 21 16 16 14 11 9 9 7 17 18 20 20 12 10 10 12 14 15 15 17 18 17 17 17 17 18 17 15 11 9 9 9 9 8 8 7 9 9 9 10
5 7 14 14 13 10 14 15 14 8 5 6 11 18 16 18 20 16 14 13 15 13 14 16 17 18 19 19 18 16 16 16 15 11 9 9 9 8 8 7 8 10 10 9
10 13 6 16 14 13 12 14 11 7 4 9 9 16 21 22 20 19 17 14 14 13 15 15 17 20 18 19 18 18 18 17 16 15 10 9 8 8 8 8 8 9 11 10
3 9 13 15 17 16 8 2 3 8 4 6 7 10 12 19 23 21 21 19 18 16 14 15 17 18 19 19 17 18 17 17 16 17 12 14 11 10 9 10 8 10 13 14
7 14 17 14 13 17 7 9 8 5 2 5 8 6 7 4 14 19 20 21 20 17 17 18 16 18 19 16 17 16 17 18 17 16 16 12 13 10 9 10 12 12 10 11
9 14 14 10 13 8 18 14 10 5 2 6 13 12 11 13 13 14 18 20 20 18 17 17 17 16 15 15 15 16 17 17 17 17 18 18 17 14 11 11 9 8 8 8
9 13 4 16 14 8 1 11 3 3 5 6 4 13 15 8 11 9 13 16 17 17 16 16 15 15 15 17 18 15 18 19 19 19 18 19 17 17 16 13 9 9 8 8
14 8 14 19 8 14 12 6 6 8 7 3 2 10 5 10 7 14 11 9 8 15 14 12 14 14 15 15 16 16 16 17 17 18 19 17 18 12 12 13 10 10 9 10
15 7 11 17 6 20 8 6 1 3 3 1 7 9 11 12 14 8 11 7 8 7 8 10 10 12 12 13 15 16 16 15 15 18 15 16 15 16 13 15 13 10 11 9
13 9 10 6 9 6 12 14 5 4 5 6 6 7 9 7 6 9 8 10 8 8 8 7 8 8 8 9 10 12 15 18 17 16 16 15 16 15 14 14 13 10 9 9
18 8 10 8 11 14 6 14 6 4 4 4 4 5 4 3 2 3 2 3 3 4 5 5 5 4 5 5 7 9 11 12 12 15 13 13 12 13 12 11 10 7 7 10
4 7 12 20 4 9 15 14 15 7 7 9 3 10 7 5 4 2 3 3 0 1 3 4 4 4 5 6 7 8 7 8 8 7 7 8 9 9 9 9 7 7 9 8
12 7 11 7 7 7 22 17 19 11 1 7 6 8 12 7 3 5 4 6 1 2 2 2 3 3 5 6 7 8 8 9 6 7 7 8 9 9 9 8 8 8 8 9
7 8 10 13 6 15 15 21 18 18 6 12 15 22 7 6 4 3 2 3 5 5 4 5 5 4 5 4 5 6 6 5 5 6 6 7 7 8 8 8 7 8 9 11
8 6 9 7 10 18 17 19 21 22 29 16 21 23 18 12 10 10 9 11 8 9 8 8 7 4 3 4 5 6 6 7 7 8 7 7 5 5 5 7 8 8 9 9
11 5 9 2 4 12 11 16 23 29 29 23 22 24 10 12 11 11 12 12 11 10 9 5 4 3 3 4 6 6 8 6 6 8 8 6 5 4 4 5 6 6 6 8
12 5 4 5 6 6 1 24 23 24 25 25 23 32 8 10 8 8 11 12 12 8 8 5 4 3 3 5 6 8 7 6 7 7 5 5 6 6 5 5 6 7 9 9
9 6 4 4 4 6 19 13 23 25 23 27 28 25 9 8 9 9 12 13 9 11 9 4 3 4 1 3 4 5 5 6 6 6 5 5 5 5 7 6 6 7 8 11
14 8 6 7 11 5 14 10 13 19 22 22 24 25 19 13 3 15 12 12 13 6 2 2 4 6 6 2 3 4 4 3 5 7 5 6 6 5 6 7 8 6 6 6
4 12 5 6 7 13 8 16 9 8 22 15 21 19 15 9 11 16 13 2 5 5 6 5 7 8 6 5 2 5 5 5 6 5 5 4 6 7 8 7 7 5 5 3
7 3 15 6 6 7 4 8 15 12 5 5 14 17 14 14 18 2 7 8 6 5 6 5 4 5 8 7 2 2 2 4 3 2 4 4 4 4 5 5 3 6 6 6
12 12 8 6 9 21 7 8 19 8 3 3 1 1 4 4 9 7 7 6 6 6 5 6 5 5 5 7 5 4 4 3 1 3 4 4 4 3 3 6 5 6 6 7
11 11 8 14 12 2 8 6 6 3 3 4 3 3 3 7 7 8 7 5 6 6 5 6 6 6 7 5 5 4 4 4 2 3 2 2 3 3 5 7 7 6 7 7
3 8 5 5 8 5 8 2 0 2 3 3 1 3 4 8 8 6 6 5 5 4 5 5 7 6 6 5 5 4 4 3 2 2 3 3 3 2 2 3 5 6 7 8
3 9 6 4 3 3 0 5 7 6 5 7 5 3 8 11 8 7 6 5 5 5 4 4 5 4 5 6 6 7 6 4 3 2 3 2 2 3 3 4 5 6 6 8
6 6 10 11 13 9 7 11 10 10 8 7 7 5 6 6 8 7 7 5 5 6 4 5 5 4 5 5 6 6 5 4 4 2 2 1 1 2 2 3 4 6 6 9
Wind_Direction
202 172 200 185 197 174 178 193 201 215 139 198 222 236 241 242 211 231 248 244 220 223 207 203 203 201 202 198 194 197 192 194 188 196 194 198 203 199 207 208 205 195 196 189
146 206 184 199 206 179 188 199 224 179 164 228 245 247 242 244 241 246 243 241 235 231 214 200 201 202 203 202 201 200 197 196 193 193 199 206 205 202 211 202 207 191 197 193
193 162 221 190 190 177 192 199 199 191 195 248 290 270 249 239 239 240 233 242 252 237 225 210 205 202 204 207 203 204 202 201 200 200 196 201 210 209 202 203 201 199 199 199
217 160 171 178 184 182 169 202 108 127 184 251 176 279 247 224 224 221 221 222 229 236 229 224 207 210 206 207 204 208 207 206 203 198 201 201 203 203 208 206 198 206 201 199
152 168 166 189 168 181 114 111 96 97 103 13 208 253 249 309 226 226 219 220 218 209 209 219 212 210 213 205 207 208 208 210 206 202 204 203 207 211 207 210 203 207 208 208
125 168 172 170 142 121 128 112 73 59 22 247 233 219 264 241 236 243 240 226 226 209 207 212 211 205 209 210 208 207 210 212 209 208 205 211 210 212 209 213 199 201 199 199
140 166 142 144 108 123 153 145 109 187 198 234 21 223 254 271 281 253 252 239 222 220 211 211 208 202 206 203 207 207 206 211 210 212 210 212 214 212 218 215 206 199 200 196
163 190 180 176 173 156 178 200 177 208 207 238 83 234 232 273 292 272 248 275 288 220 220 215 207 206 205 210 203 203 210 217 211 210 214 213 215 218 216 215 208 212 207 207
184 134 163 182 138 146 171 195 64 84 70 286 212 250 249 246 259 258 245 249 245 251 240 238 226 223 217 211 209 201 203 213 216 215 214 215 218 216 215 217 214 209 207 204
170 119 182 154 137 195 181 148 146 217 206 239 234 249 251 258 272 229 231 239 264 260 242 239 247 234 226 230 218 219 212 208 209 214 212 212 212 213 217 220 219 215 199 155
164 123 151 150 199 175 178 183 214 190 234 246 289 249 75 279 334 304 182 163 301 326 309 289 272 259 262 251 235 228 226 222 215 213 212 212 209 207 218 220 218 189 151 162
122 110 151 185 108 216 207 183 187 191 191 236 329 256 146 143 156 172 136 149 179 254 320 298 288 297 274 260 248 233 238 232 228 205 202 214 206 192 207 212 187 163 167 170
160 126 120 150 264 208 211 206 209 229 346 198 194 263 182 206 183 215 230 313 125 107 19 320 280 259 256 244 236 231 223 215 212 214 203 201 203 208 187 184 180 171 163 164
116 154 167 186 181 153 195 208 208 208 208 206 218 241 186 186 202 155 285 298 314 324 337 308 282 265 256 253 254 244 221 220 206 206 213 213 206 210 199 197 171 168 167 167
163 152 198 190 174 176 194 199 193 207 227 212 234 240 236 233 251 276 299 297 273 273 265 256 257 258 261 242 228 233 231 203 192 208 214 218 206 200 171 161 165 159 170 171
179 163 170 90 141 182 194 193 201 212 226 236 253 267 245 260 266 261 274 282 285 282 281 269 273 284 265 241 240 225 225 208 210 217 210 201 183 185 173 149 145 146 147 152
162 117 123 173 145 111 350 212 204 217 223 223 237 243 228 243 255 252 270 278 285 293 282 287 307 289 207 225 222 228 226 211 210 217 199 180 166 168 166 159 157 164 168 161
135 115 95 115 115 198 242 204 209 214 221 223 242 255 249 258 267 257 253 263 263 272 279 307 318 297 267 222 216 227 203 202 204 221 199 174 170 178 163 165 189 185 180 178
193 154 145 155 199 313 264 193 211 206 239 225 234 248 249 252 178 252 231 241 240 256 61 324 310 307 306 284 180 168 156 197 220 221 199 180 185 175 176 185 184 182 179 182
209 197 164 151 195 215 235 168 166 151 262 219 224 239 235 207 226 250 242 258 93 86 81 35 348 333 330 8 56 153 171 193 243 249 232 193 187 177 185 190 181 168 166 170
170 141 204 179 224 265 160 152 144 189 260 235 216 231 232 222 228 55 103 84 84 73 59 34 43 22 350 336 336 216 177 213 238 184 164 160 183 184 175 159 145 157 155 143
167 170 191 199 223 253 151 151 188 207 72 75 109 171 242 214 111 119 119 105 99 93 68 36 45 49 35 4 345 358 343 3 93 138 150 160 152 150 154 153 134 148 154 164
190 199 166 188 209 168 179 193 218 86 117 176 202 189 177 137 147 153 124 97 73 71 61 37 47 33 24 24 14 16 359 337 99 122 121 111 134 159 161 165 163 161 170 180
236 201 195 121 204 184 170 154 28 135 164 135 108 119 161 146 124 114 109 107 97 58 57 40 37 24 16 5 31 19 350 8 71 87 111 129 148 153 176 188 181 185 188 193
143 136 156 268 91 58 254 201 182 155 129 124 93 93 124 119 114 139 118 93 82 70 51 39 53 41 23 8 20 14 5 4 33 61 79 101 143 179 189 221 211 216 220 214
189 165 193 223 165 199 193 172 146 156 158 142 129 109 54 92 123 122 102 96 97 86 55 45 45 38 15 25 37 19 8 9 10 21 57 91 169 150 217 227 244 240 268 242